Weather History for Haines, AK

Change the Weather History Date:

Saturday, March 23, 2013

  Actual Average Record
Temperature  
Mean Temperature 26 °F -  
Max Temperature 30 °F 37 °F 51 °F (1980)
Min Temperature 21 °F 27 °F 7 °F (2001)
Degree Days  
Heating Degree Days 40    
Moisture  
Dew Point 21 °F    
Average Humidity 81    
Maximum Humidity 93    
Minimum Humidity 60    
Precipitation  
Precipitation 0.06 in - - ()
Sea Level Pressure  
Sea Level Pressure 30.22 in    
Wind  
Wind Speed 8 mph (WNW)    
Max Wind Speed 13 mph    
Max Gust Speed -    
Visibility 5 miles    
Events Snow    
Averages and records for this station are not official NWS values.
T = Trace of Precipitation, MM = Missing Value Source: NWS Daily Summary

Daily Weather History Graph

Daily Weather History Graph

Search for Another Location

Airport:

Trip Planner

Search our weather history database for the weather conditions in past years. The results will help you decide how hot, cold, wet, or windy it might be!

Date:

Astronomy

Mar. 23, 2013 Rise Set
Actual Time 6:53 AM AKDT 7:24 PM AKDT
Civil Twilight 6:12 AM AKDT 8:05 PM AKDT
Nautical Twilight 5:23 AM AKDT 8:55 PM AKDT
Astronomical Twilight 4:29 AM AKDT 9:49 PM AKDT
Moon 3:17 PM AKDT (3/23) 5:20 AM AKDT (3/23)
Length of Visible Light 13h 52m
Length of Day
12h 31m
Waxing Gibbous, 86% of the Moon is Illuminated
Mar 23
Waxing Gibbous
Mar 27
Full
Apr 2
Last Quarter
Apr 10
New
Apr 18
First Quarter

Hourly Weather History & Observations

Time (AKDT) Temp. Windchill Dew Point Humidity Pressure Visibility Wind Dir Wind Speed Gust Speed Precip Events Conditions
12:54 AM 24.1 °F 13.7 °F 12.0 °F 60% 30.31 in 10.0 mi WNW 10.4 mph - N/A   Overcast
1:54 AM 23.0 °F 12.4 °F 12.0 °F 63% 30.30 in 10.0 mi WNW 10.4 mph - N/A   Overcast
2:13 AM 23.0 °F 13.1 °F 12.2 °F 63% 30.28 in 10.0 mi WNW 9.2 mph - N/A   Overcast
2:54 AM 23.0 °F 11.1 °F 12.9 °F 65% 30.29 in 10.0 mi WNW 12.7 mph - N/A   Overcast
3:04 AM 23.0 °F 11.7 °F 12.2 °F 63% 30.28 in 10.0 mi WNW 11.5 mph - N/A   Overcast
3:26 AM 21.2 °F 9.5 °F 12.2 °F 68% 30.28 in 10.0 mi West 11.5 mph - N/A   Mostly Cloudy
3:54 AM 21.9 °F 9.8 °F 12.0 °F 66% 30.28 in 10.0 mi WNW 12.7 mph - N/A   Overcast
4:01 AM 21.2 °F 8.9 °F 12.2 °F 68% 30.27 in 10.0 mi WNW 12.7 mph - N/A   Overcast
4:54 AM 23.0 °F 11.1 °F 10.9 °F 60% 30.28 in 10.0 mi WNW 12.7 mph - N/A   Overcast
5:54 AM 23.0 °F 11.1 °F 10.9 °F 60% 30.28 in 10.0 mi WNW 12.7 mph - N/A   Overcast
6:54 AM 23.0 °F 11.7 °F 12.9 °F 65% 30.28 in 10.0 mi WNW 11.5 mph - N/A   Overcast
7:54 AM 21.9 °F 11.7 °F 15.1 °F 75% 30.27 in 10.0 mi WNW 9.2 mph - N/A   Overcast
8:54 AM 21.9 °F 9.8 °F 12.9 °F 68% 30.27 in 10.0 mi WNW 12.7 mph - N/A   Overcast
9:54 AM 24.1 °F 13.1 °F 15.1 °F 69% 30.27 in 10.0 mi WNW 11.5 mph - N/A   Overcast
10:54 AM 24.1 °F 13.7 °F 15.1 °F 69% 30.27 in 10.0 mi WNW 10.4 mph - 0.00 in   Overcast
11:54 AM 26.1 °F 18.4 °F 16.0 °F 66% 30.25 in 10.0 mi West 6.9 mph - N/A   Overcast
12:54 PM 27.0 °F 20.5 °F 17.1 °F 66% 30.25 in 10.0 mi WNW 5.8 mph - N/A   Overcast
1:54 PM 28.0 °F - 21.0 °F 75% 30.24 in 10.0 mi Calm Calm - 0.00 in   Overcast
2:54 PM 28.9 °F - 24.1 °F 82% 30.23 in 2.5 mi Calm Calm - 0.00 in Snow Light Snow
3:06 PM 28.4 °F - 24.8 °F 86% 30.22 in 1.5 mi Calm Calm - 0.00 in Snow Light Snow
3:37 PM 30.2 °F - 24.8 °F 80% 30.21 in 2.0 mi Calm Calm - 0.00 in Snow Light Snow
3:44 PM 30.2 °F - 24.8 °F 80% 30.21 in 1.5 mi Calm Calm - 0.00 in Snow Light Snow
3:54 PM 28.0 °F - 25.0 °F 88% 30.22 in 1.8 mi Calm Calm - 0.00 in Snow Light Snow
4:54 PM 27.0 °F - 25.0 °F 92% 30.20 in 1.5 mi Calm Calm - 0.00 in Snow Light Snow
5:33 PM 28.4 °F - 26.6 °F 93% 30.19 in 1.0 mi Calm Calm - 0.01 in Snow Light Snow
5:41 PM 28.4 °F 24.6 °F 26.6 °F 93% 30.19 in 1.2 mi West 3.5 mph - 0.01 in Snow Light Snow
5:54 PM 28.0 °F 24.2 °F 26.1 °F 92% 30.20 in 1.0 mi WNW 3.5 mph - 0.01 in Snow Light Snow
6:06 PM 28.4 °F 24.6 °F 26.6 °F 93% 30.19 in 1.0 mi WNW 3.5 mph - 0.00 in Snow Light Snow
6:28 PM 28.4 °F 22.2 °F 26.6 °F 93% 30.19 in 0.8 mi WNW 5.8 mph - 0.01 in Snow Light Snow
6:54 PM 28.0 °F 20.8 °F 26.1 °F 92% 30.19 in 0.8 mi WNW 6.9 mph - 0.01 in Snow Light Snow
7:27 PM 28.4 °F 23.3 °F 26.6 °F 93% 30.18 in 1.2 mi NW 4.6 mph - 0.01 in Snow Light Snow
7:54 PM 28.0 °F 20.8 °F 26.1 °F 92% 30.19 in 1.2 mi WNW 6.9 mph - 0.02 in Snow Light Snow
8:33 PM 28.4 °F 24.6 °F 26.6 °F 93% 30.18 in 2.0 mi WNW 3.5 mph - 0.01 in Snow Light Snow
8:54 PM 28.0 °F 24.2 °F 26.1 °F 92% 30.19 in 2.0 mi WNW 3.5 mph - 0.01 in Snow Light Snow
9:14 PM 28.4 °F 22.2 °F 26.6 °F 93% 30.18 in 2.0 mi WNW 5.8 mph - 0.00 in Snow Light Snow
9:54 PM 28.0 °F 20.8 °F 26.1 °F 92% 30.19 in 2.5 mi WNW 6.9 mph - 0.00 in Snow Light Snow
10:11 PM 28.4 °F 19.7 °F 26.6 °F 93% 30.17 in 3.0 mi WNW 9.2 mph - 0.00 in Snow Light Snow
10:30 PM 28.4 °F 19.7 °F 26.6 °F 93% 30.17 in 2.5 mi WNW 9.2 mph - 0.00 in Snow Light Snow
10:52 PM 28.4 °F 20.4 °F 26.6 °F 93% 30.18 in 1.8 mi WNW 8.1 mph - 0.01 in Snow Light Snow
10:54 PM 28.0 °F 20.0 °F 26.1 °F 92% 30.18 in 1.8 mi WNW 8.1 mph - 0.01 in Snow Light Snow
11:01 PM 28.4 °F 20.4 °F 26.6 °F 93% 30.17 in 2.0 mi WNW 8.1 mph - 0.00 in Snow Light Snow
11:18 PM 28.4 °F 20.4 °F 26.6 °F 93% 30.17 in 2.0 mi WNW 8.1 mph - 0.00 in Snow Light Snow
11:44 PM 28.4 °F 20.4 °F 26.6 °F 93% 30.17 in 3.0 mi WNW 8.1 mph - 0.00 in Snow Light Snow
11:54 PM 28.0 °F 20.0 °F 26.1 °F 92% 30.17 in 2.5 mi WNW 8.1 mph - 0.00 in Snow Light Snow